Tracking 27405 objects as of 1-Jun-2023
HD Live streaming from Space Station
objects crossing your sky now

BLOCK DM-SL R/B

Track BLOCK DM-SL R/B now!


NORAD ID: 36107
Int'l Code: 2009-067B
Perigee: 10,031.7 km
Apogee: 35,715.6 km
Inclination: 13.0 °
Period: 829.5 minutes
Semi major axis: 29244 km
RCS: 12.5893 m2 (large)
Launch date: November 30, 2009
Source: Commonwealth of Independent States (former USSR) (CIS)
Launch site: TYURATAM MISSILE AND SPACE COMPLEX (TTMTR)

Note: This is a ROCKET BODY
Your satellite tracking list
Your tracking list is empty




NASA's NSSDC Master Catalog

Two Line Element Set (TLE):
1 36107U 09067B   23151.74411095 -.00000094  00000-0  00000-0 0  9996
2 36107  12.9837  22.1337 4391209   3.7967 273.9723  1.73593120 85600
Source of the keplerian elements: AFSPC